Location: DARK SKY Beskydy - Park tmavé oblohy, www.darkskybeskydy.cz
(49.4926°N, 18.5016°E)
Time: 10:24:38
(UTC+02:00)

Transit 4A - Pass Details

Date: 01 March 2024
Orbit: 871 x 971 km, 66.8° (Epoch: 24 April)

Event Time Altitude Azimuth Distance (km) Brightness Sun altitude
Exits shadow 00:34:29 11° 37° (NE) 2,537 10.6 -47.3°
Drops below altitude 10° 00:34:37 10° 37° (NE) 2,586 10.7 -47.3°
Sets 00:37:05 0° 37° (NE) 3,516 11.5 -47.2°
